Flag for U.S.A. Weather past 2 weeks in Naples, Florida, U.S.A.

Now
82 °F

Clear.


Feels Like: 86 °F
Forecast: 79 / 90 °F
Wind: No wind

Location: Naples Municipal

Current Time: Sep 4, 2015 at 11:52:41 PM

Latest Report: Sep 4, 2015 at 10:53 PM


Visibility: 10 mi

Pressure: 29.94 "Hg

Humidity: 70%

Dew point: 71 °F

Location of NaplesLocation

Historic Weather in Naples — Graph

°F

Naples temperature yesterday

Maximum temperature yesterday: 93 °F (at 1:53 PM)
Minimum temperature yesterday: 79 °F (at 9:53 PM)
Average temperature yesterday: 85 °F

Past Weeks' High & Low Weather Summary

 TemperatureHumidityPressure
High94 °F (Aug 23, 1:53 PM)100% (Aug 26, 8:53 PM)30.09 "Hg (Aug 26, 8:53 PM)
Low74 °F (Aug 27, 2:53 AM)52% (Aug 28, 11:53 AM)29.85 "Hg (Aug 24, 6:53 PM)
Average83 °F78%29.97 "Hg
* Reported Aug 20 9:53 PM — Sep 4 9:53 PM, Naples, Weather by CustomWeather, © 2015

Note: Actual official high and low records may vary slightly from our data, if they occured in-between our weather recording intervals... More about our weather records

Advertising

Naples weather history for previous 24 hours

 ConditionsComfort  
Time TempWeatherWind HumidityBarometerVisibility
9:53 PM
Fri, Sep 4
83 °FClear.8 mph72%29.96 "Hg10 mi
8:53 PM87 °FPassing clouds.6 mph67%29.95 "Hg10 mi
7:53 PM87 °FSunny.10 mph69%29.95 "Hg10 mi
6:53 PM88 °FSunny.8 mph67%29.95 "Hg10 mi
5:53 PM90 °FPassing clouds.12 mph63%29.94 "Hg10 mi
4:53 PM90 °FPassing clouds.12 mph61%29.91 "Hg10 mi
3:53 PM91 °FThundershowers. Passing clouds.12 mph64%29.94 "Hg10 mi
1:53 PM92 °FScattered clouds.10 mph62%29.97 "Hg10 mi
12:53 PM91 °FScattered clouds.10 mph57%29.99 "Hg10 mi
12:11 PM91 °FScattered clouds.6 mph56%29.99 "Hg10 mi
10:53 AM90 °FPassing clouds.5 mph59%30.00 "Hg10 mi
9:50 AM88 °FPassing clouds.6 mph66%29.99 "Hg10 mi
8:50 AM86 °FSunny.6 mph70%29.98 "Hg10 mi
7:50 AM81 °FClear.No wind84%29.97 "Hg10 mi
5:53 AM79 °FClear.No wind88%29.93 "Hg10 mi
4:53 AM79 °FClear.No wind84%29.93 "Hg10 mi
3:53 AM80 °FClear.No wind81%29.92 "Hg10 mi
2:53 AM79 °FClear.3 mph82%29.92 "Hg10 mi
1:53 AM79 °FClear.No wind82%29.94 "Hg10 mi
12:53 AM78 °FClear.No wind84%29.95 "Hg10 mi
11:53 PM
Thu, Sep 3
79 °FClear.No wind82%29.96 "Hg10 mi
Weather by CustomWeather, © 2015

See weather overviewHow to use our weather pages